Location: Sawmill Trailhead
(33.5800°N, 116.4497°W)
Time: 19:05:41
(UTC-07:00)

Amateur Radio Satellites - All Passes

Search period start: 27 April 2015 18:35
Search period end: 28 April 2015 18:35
Location: Sawmill Trailhead, 33.5800°N, 116.4497°W

Satellite Date Start Highest point End Downlink Frequencies (MHz)
Time Altitude Azimuth
PHONESAT 2.4 27 Apr 18:41:32 18:44:39 27° 355° (N) 18:47:46 2401.200-2431.200
MOZHAYETS 4 27 Apr 18:46:17 18:48:26 13° 292° (WNW) 18:50:21
M-CUBED/EXP-1 PRIME 27 Apr 18:48:48 18:52:31 37° 102° (ESE) 18:55:58 437.505
CUBESAT XI-V 27 Apr 18:49:54 18:54:22 48° 99° (E) 18:58:50 437.345
CUTE-I 27 Apr 18:55:13 19:00:18 44° 261° (W) 19:05:21 437.470
SO-50 27 Apr 18:57:30 18:59:34 13° 44° (NE) 19:01:52 436.795
Cosmos 2499 27 Apr 18:58:53 19:07:43 65° 279° (W) 19:16:19 435.465 / 435.565
HO-68 27 Apr 19:03:57 19:07:24 15° 60° (ENE) 19:11:17 435.675
Cubesat XI-IV 27 Apr 19:05:52 19:10:42 34° 263° (W) 19:15:29 437.490
RS-15 27 Apr 19:19:42 19:20:16 10° 3° (N) 19:20:55 29.354- 29.394
GOMX 1 27 Apr 19:26:00 19:27:02 11° 67° (ENE) 19:28:21 467.674
VERMONT LUNAR 27 Apr 19:28:38 19:31:44 32° 13° (NNE) 19:34:50 437.305
AUBIESAT-1 27 Apr 19:28:49 19:32:48 71° 289° (WNW) 19:36:26 437.475
BRITE-PL 27 Apr 19:47:36 19:51:17 33° 73° (ENE) 19:55:08 437.365/2234.400
DOVE 4 27 Apr 19:50:05 19:52:14 14° 68° (ENE) 19:54:39 437.250
ISS 27 Apr 19:50:08 19:50:54 11° 233° (SW) 19:51:32 145.825
STRAND 1 27 Apr 19:51:33 19:56:40 86° 280° (W) 20:01:47 437.568
PRISM 27 Apr 19:59:55 20:03:46 40° 286° (WNW) 20:07:35 437.425
COMPASS 1 27 Apr 20:13:26 20:16:25 19° 71° (ENE) 20:19:31 437.405
CINEMA 3 27 Apr 20:17:01 20:19:14 14° 68° (ENE) 20:21:43 145.822/145.860
PHONESAT 2.4 27 Apr 20:20:10 20:23:27 32° 12° (NNE) 20:26:43 2401.200-2431.200
M-CUBED/EXP-1 PRIME 27 Apr 20:25:00 20:27:02 13° 298° (WNW) 20:28:49 437.505
CUBESAT XI-V 27 Apr 20:29:02 20:31:27 14° 292° (WNW) 20:33:38 437.345
SO-50 27 Apr 20:35:50 20:40:49 81° 241° (WSW) 20:45:41 436.795
SEEDS 27 Apr 20:41:24 20:45:32 53° 76° (ENE) 20:49:43 437.485
Oscar 11 27 Apr 20:44:25 20:47:15 18° 70° (ENE) 20:50:14 145.826/435.025
HO-68 27 Apr 20:47:07 20:54:19 90° 283° (WNW) 21:01:34 435.675
ZACube-1 27 Apr 20:52:22 20:53:31 11° 67° (ENE) 20:54:57 437.345
AAUSAT CUBESAT 2 27 Apr 20:52:49 20:56:53 49° 75° (ENE) 21:01:00 437.432
CANX-2 27 Apr 20:53:43 20:58:01 77° 258° (WSW) 21:02:21 2200.000
GOMX 1 27 Apr 21:00:41 21:04:44 50° 261° (W) 21:08:59 467.674
CUTE 1.7 + AOD 2 27 Apr 21:02:32 21:06:48 67° 259° (W) 21:11:05 437.475
VERMONT LUNAR 27 Apr 21:05:59 21:09:20 61° 209° (SSW) 21:12:39 437.305
DX 1 27 Apr 21:22:32 21:24:59 16° 69° (ENE) 21:27:38 434.975-435.025
DOVE 4 27 Apr 21:25:41 21:29:40 40° 263° (W) 21:33:49 437.250
BRITE-PL 27 Apr 21:27:38 21:30:03 15° 269° (W) 21:32:20 437.365/2234.400
RS-15 27 Apr 21:30:08 21:38:54 25° 38° (NE) 21:48:21 29.354- 29.394
CUBEBUG 2 27 Apr 21:34:40 21:38:56 57° 75° (ENE) 21:43:22 437.445
Cosmos 2491 27 Apr 21:34:44 21:41:39 29° 86° (E) 21:48:53 435.465 / 435.565
DELFI C3 27 Apr 21:47:48 21:51:53 75° 77° (ENE) 21:55:58 145.870
YUBILEINY 27 Apr 21:48:06 21:56:45 62° 80° (E) 22:05:20 435.215
COMPASS 1 27 Apr 21:48:15 21:51:56 28° 264° (W) 21:55:35 437.405
CINEMA 3 27 Apr 21:51:58 21:56:04 42° 262° (W) 22:00:21 145.822/145.860
O/OREOS (USA 219) 27 Apr 21:54:54 21:59:29 82° 289° (WNW) 22:04:04 437.305
UWE-3 27 Apr 21:55:35 21:59:56 82° 77° (ENE) 22:04:26 435.000/436.395/437.385
PHONESAT 2.4 27 Apr 21:58:19 22:01:54 75° 207° (SSW) 22:05:27 2401.200-2431.200
FUNcube-1 27 Apr 21:58:40 22:02:57 68° 77° (ENE) 22:07:23 145.935
UKube-1 27 Apr 22:00:26 22:04:27 40° 73° (ENE) 22:08:31 .
HUMSAT D 27 Apr 22:01:03 22:04:47 32° 73° (ENE) 22:08:38 437.325/437.525
ESTCUBE 1 27 Apr 22:09:58 22:11:50 13° 68° (ENE) 22:13:55 437.505/2401.250
Oscar 11 27 Apr 22:19:16 22:23:12 33° 263° (W) 22:27:08 145.826/435.025
50 SAT 27 Apr 22:23:58 22:27:36 35° 74° (ENE) 22:31:18 437.505
ZACube-1 27 Apr 22:25:09 22:29:25 55° 261° (W) 22:33:47 437.345
TIGRISAT 27 Apr 22:31:12 22:34:40 21° 93° (E) 22:38:14 435.000
AAUSAT CUBESAT 2 27 Apr 22:31:56 22:32:52 10° 270° (W) 22:33:29 437.432
UNISAT 6 27 Apr 22:36:23 22:40:11 25° 95° (E) 22:44:01 437.425
CUBEBUG 1 27 Apr 22:36:43 22:39:57 22° 71° (ENE) 22:43:18 437.445
VELOX 1 27 Apr 22:37:29 22:41:43 50° 75° (ENE) 22:46:00 145.980
HO-68 27 Apr 22:40:03 22:43:03 12° 272° (W) 22:45:26 435.675
POLYITAN 1 27 Apr 22:40:22 22:41:27 11° 90° (E) 22:42:50 437.675
Cosmos 2504 27 Apr 22:54:39 22:55:45 10° 61° (ENE) 22:57:32 435.465 / 435.565
QB50P1 27 Apr 22:55:54 22:58:43 18° 93° (E) 23:01:41 145.935-145.965
AISAT 27 Apr 22:56:12 23:00:36 89° 79° (E) 23:05:01 437.250
DX 1 27 Apr 22:56:56 23:00:58 37° 262° (W) 23:04:59 434.975-435.025
ANTELSAT 27 Apr 23:17:51 23:22:34 77° 101° (ESE) 23:27:09 437.575/2403.000
QB50P2 27 Apr 23:21:58 23:25:58 37° 98° (E) 23:29:58 145.880/145.840
JUGNU 27 Apr 23:23:43 23:26:39 14° 167° (SSE) 23:29:40 437.505
Cosmos 2491 27 Apr 23:29:41 23:38:08 52° 282° (WNW) 23:46:36 435.465 / 435.565
HUMSAT D 27 Apr 23:37:53 23:40:39 16° 268° (W) 23:43:18 437.325/437.525
NANOSAT C BR1 27 Apr 23:38:08 23:42:22 58° 100° (E) 23:46:36 145.865
PHONESAT 2.4 27 Apr 23:38:20 23:39:45 12° 219° (SW) 23:41:02 2401.200-2431.200
UKube-1 27 Apr 23:38:31 23:40:49 14° 268° (W) 23:42:53 .
RS-15 27 Apr 23:41:34 23:53:18 86° 62° (ENE) 00:05:29 29.354- 29.394
POPSAT HIP 1 27 Apr 23:42:28 23:46:45 66° 101° (E) 23:51:01 437.405
ESTCUBE 1 27 Apr 23:43:56 23:48:19 50° 260° (W) 23:52:43 437.505/2401.250
YUBILEINY 27 Apr 23:46:25 23:52:58 23° 276° (W) 23:59:06 435.215
SPROUT 27 Apr 23:46:50 23:50:41 34° 73° (ENE) 23:54:35 437.525
BUGSAT 1 27 Apr 23:53:41 23:57:49 60° 100° (E) 00:01:59 437.445
50 SAT 28 Apr 00:00:29 00:02:35 13° 268° (W) 00:04:27 437.505
TIGRISAT 28 Apr 00:07:19 00:11:28 31° 288° (WNW) 00:15:28 435.000
DUCHIFAT 1 28 Apr 00:11:19 00:15:31 54° 285° (WNW) 00:19:41 145.980
CUBEBUG 1 28 Apr 00:12:34 00:16:13 26° 264° (W) 00:19:47 437.445
UNISAT 6 28 Apr 00:12:59 00:16:55 26° 289° (WNW) 00:20:41 437.425
POLYITAN 1 28 Apr 00:13:31 00:17:42 49° 285° (WNW) 00:21:52 437.675
VELOX 1 28 Apr 00:17:14 00:18:39 11° 269° (W) 00:19:46 145.980
ITUPSAT 1 28 Apr 00:26:19 00:27:49 12° 66° (ENE) 00:29:37 437.325
QB50P1 28 Apr 00:30:51 00:34:40 31° 287° (WNW) 00:38:26 145.935-145.965
AIST 1 28 Apr 00:33:27 00:37:45 83° 276° (W) 00:42:03
TISAT 1 28 Apr 00:41:59 00:46:07 61° 259° (W) 00:50:16 437.305
Cosmos 2504 28 Apr 00:42:59 00:50:53 79° 82° (E) 00:58:14 435.465 / 435.565
BEESAT 28 Apr 00:53:02 00:56:46 24° 70° (ENE) 01:00:38 436.000
SWISSCUBE 28 Apr 00:55:43 00:59:43 28° 71° (ENE) 01:03:48 437.505
QB50P2 28 Apr 00:58:59 01:01:35 15° 291° (WNW) 01:04:01 145.880/145.840
JUGNU 28 Apr 01:10:44 01:15:02 21° 176° (S) 01:19:21 437.505
BEESAT 3 28 Apr 01:15:44 01:19:10 27° 112° (ESE) 01:22:42 437.485
NANOSAT C BR1 28 Apr 01:17:19 01:17:47 10° 292° (WNW) 01:17:57 145.865
BEESAT 2 28 Apr 01:20:36 01:23:57 25° 112° (ESE) 01:27:25 435.950
SPROUT 28 Apr 01:24:16 01:26:55 16° 268° (W) 01:29:24 437.525
SRMSAT 28 Apr 01:26:04 01:29:26 16° 168° (SSE) 01:32:52 437.500
KKS-1 28 Apr 01:44:44 01:46:45 13° 68° (ENE) 01:49:00 437.445
Oscar 19 28 Apr 01:46:06 01:50:59 41° 98° (E) 01:55:52 437.125/150
RS-15 28 Apr 01:56:29 02:04:47 21° 256° (WSW) 02:12:25 29.354- 29.394
ITUPSAT 1 28 Apr 02:00:30 02:05:15 63° 259° (WSW) 02:10:01 437.325
GONETS M04 28 Apr 02:12:52 02:18:23 19° 66° (ENE) 02:24:26
CUSAT 1 28 Apr 02:24:52 02:28:52 15° 65° (ENE) 02:33:34 437.405
ITAMSAT 1 28 Apr 02:26:54 02:31:19 29° 96° (E) 02:35:49 435.822/435.867
BEESAT 28 Apr 02:30:21 02:34:31 29° 264° (W) 02:38:37 436.000
STARS 28 Apr 02:31:06 02:34:47 28° 72° (ENE) 02:38:34 437.465
SWISSCUBE 28 Apr 02:33:37 02:37:33 24° 265° (W) 02:41:24 437.505
AIST 2 28 Apr 02:36:31 02:40:39 57° 116° (ESE) 02:44:52 435.215
Cosmos 2504 28 Apr 02:39:20 02:43:19 14° 279° (W) 02:46:41 435.465 / 435.565
BEESAT 3 28 Apr 02:53:59 02:57:11 21° 308° (NW) 03:00:20 437.485
BEESAT 2 28 Apr 02:58:41 03:02:01 23° 307° (NW) 03:05:20 435.950
JUGNU 28 Apr 02:59:15 03:03:27 20° 186° (S) 03:07:36 437.505
Gurwin Techsat 1B 28 Apr 03:11:37 03:16:56 74° 101° (E) 03:22:15 435.225
SRMSAT 28 Apr 03:13:38 03:17:58 21° 178° (S) 03:22:18 437.500
KKS-1 28 Apr 03:18:46 03:23:02 46° 261° (W) 03:27:19 437.445
DANDE 28 Apr 03:19:31 03:26:22 32° 73° (ENE) 03:33:55 436.750
Oscar 19 28 Apr 03:26:16 03:30:04 20° 292° (WNW) 03:33:43 437.125/150
AO-7 28 Apr 03:56:42 04:03:48 32° 97° (E) 04:11:05 29.400- 29.500
HORYU 2 28 Apr 03:59:23 04:03:37 41° 98° (E) 04:07:51 437.375
CUSAT 1 28 Apr 04:04:41 04:12:45 81° 81° (E) 04:21:03 437.405
MOZHAYETS 4 28 Apr 04:05:19 04:09:20 30° 72° (ENE) 04:13:26
ITAMSAT 1 28 Apr 04:06:22 04:10:45 28° 290° (WNW) 04:15:02 435.822/435.867
GONETS M04 28 Apr 04:07:30 04:16:22 78° 266° (W) 04:25:08
STARS 28 Apr 04:07:54 04:11:16 21° 266° (W) 04:14:30 437.465
AIST 2 28 Apr 04:17:36 04:19:40 13° 313° (NW) 04:21:34 435.215
JAS-2 28 Apr 04:22:21 04:28:06 46° 97° (E) 04:33:18 435.910
JUGNU 28 Apr 04:49:31 04:51:49 12° 195° (SSW) 04:53:59 437.505
Gurwin Techsat 1B 28 Apr 04:54:21 04:56:22 12° 295° (WNW) 04:58:04 435.225
Cosmos 2499 28 Apr 04:56:36 05:03:20 35° 74° (ENE) 05:09:50 435.465 / 435.565
DANDE 28 Apr 05:02:07 05:09:51 52° 266° (W) 05:18:02 436.750
SRMSAT 28 Apr 05:02:32 05:06:31 18° 188° (S) 05:10:27 437.500
M-CUBED/EXP-1 PRIME 28 Apr 05:32:23 05:36:37 32° 67° (ENE) 05:40:56 437.505
HORYU 2 28 Apr 05:37:16 05:39:58 15° 292° (WNW) 05:42:28 437.375
MOZHAYETS 4 28 Apr 05:43:02 05:46:37 21° 266° (W) 05:50:03
AO-7 28 Apr 05:48:53 05:56:50 50° 293° (WNW) 06:04:42 29.400- 29.500
Cubesat XI-IV 28 Apr 05:49:08 05:51:20 13° 90° (E) 05:53:54 437.490
CUSAT 1 28 Apr 05:49:25 05:54:55 19° 273° (W) 05:59:59 437.405
CUBESAT XI-V 28 Apr 05:49:41 05:53:39 30° 72° (ENE) 05:57:41 437.345
JAS-2 28 Apr 06:08:25 06:12:48 20° 295° (WNW) 06:16:41 435.910
GONETS M04 28 Apr 06:09:25 06:12:02 11° 280° (W) 06:13:46
AUBIESAT-1 28 Apr 06:11:30 06:16:16 76° 72° (ENE) 06:21:04 437.475
PRISM 28 Apr 06:45:36 06:49:46 82° 77° (ENE) 06:53:55 437.425
Cosmos 2499 28 Apr 06:49:45 06:56:27 34° 272° (W) 07:02:39 435.465 / 435.565
PCSat 28 Apr 06:51:17 06:55:54 30° 109° (ESE) 07:00:39 145.827
SRMSAT 28 Apr 06:54:15 06:55:02 10° 196° (SSW) 06:55:40 437.500
STRAND 1 28 Apr 07:03:19 07:08:26 90° 79° (ENE) 07:13:34 437.568
M-CUBED/EXP-1 PRIME 28 Apr 07:07:33 07:11:27 24° 261° (W) 07:15:17 437.505
CUTE-I 28 Apr 07:16:06 07:21:25 79° 285° (WNW) 07:26:45 437.470
Cubesat XI-IV 28 Apr 07:26:41 07:31:56 62° 286° (WNW) 07:37:11 437.490
CUBESAT XI-V 28 Apr 07:27:33 07:31:07 21° 266° (W) 07:34:34 437.345
BRITE-PL 28 Apr 07:55:42 07:59:26 20° 93° (E) 08:03:29 437.365/2234.400
O/OREOS (USA 219) 28 Apr 08:09:00 08:13:30 84° 254° (WSW) 08:17:57 437.305
HO-68 28 Apr 08:20:45 08:25:46 21° 93° (E) 08:31:06 435.675
SEEDS 28 Apr 08:32:00 08:33:30 12° 91° (E) 08:35:16 437.485
PCSat 28 Apr 08:34:32 08:39:18 30° 304° (NW) 08:44:01 145.827
AAUSAT CUBESAT 2 28 Apr 08:42:51 08:43:26 10° 90° (E) 08:44:17 437.432
CANX-2 28 Apr 08:43:48 08:47:14 24° 95° (E) 08:50:43 2200.000
CUTE 1.7 + AOD 2 28 Apr 08:52:19 08:55:57 27° 96° (E) 08:59:36 437.475
YUBILEINY 28 Apr 08:53:53 08:56:21 12° 80° (E) 08:59:39 435.215
GOMX 1 28 Apr 09:05:15 09:10:31 65° 100° (E) 09:15:57 467.674
ISS 28 Apr 09:13:39 09:14:17 11° 127° (SE) 09:15:05 145.825
DOVE 4 28 Apr 09:27:35 09:32:49 73° 100° (E) 09:38:09 437.250
TIGRISAT 28 Apr 09:27:50 09:29:28 12° 67° (ENE) 09:31:22 435.000
CUBEBUG 2 28 Apr 09:30:48 09:34:00 18° 92° (E) 09:37:21 437.445
UNISAT 6 28 Apr 09:32:44 09:35:05 15° 68° (ENE) 09:37:41 437.425
DELFI C3 28 Apr 09:33:01 09:34:57 14° 92° (E) 09:37:05 145.870
BRITE-PL 28 Apr 09:33:03 09:38:05 45° 285° (WNW) 09:43:20 437.365/2234.400
COMPASS 1 28 Apr 09:35:12 09:39:21 61° 100° (E) 09:43:27 437.405
Cosmos 2491 28 Apr 09:44:36 09:53:24 67° 81° (E) 10:02:11 435.465 / 435.565
UWE-3 28 Apr 09:50:12 09:53:56 24° 94° (E) 09:57:44 435.000/436.395/437.385
CINEMA 3 28 Apr 09:50:13 09:55:12 62° 100° (E) 10:00:11 145.822/145.860
FUNcube-1 28 Apr 09:52:10 09:55:20 19° 93° (E) 09:58:37 145.935
SEEDS 28 Apr 10:05:34 10:09:36 42° 285° (WNW) 10:13:33 437.485
HO-68 28 Apr 10:06:56 10:14:00 60° 289° (WNW) 10:20:59 435.675
Oscar 11 28 Apr 10:10:11 10:14:28 59° 100° (E) 10:18:42 145.826/435.025
QB50P2 28 Apr 10:12:07 10:14:50 17° 70° (ENE) 10:17:44 145.880/145.840
ANTELSAT 28 Apr 10:12:48 10:17:02 41° 73° (ENE) 10:21:24 437.575/2403.000
AAUSAT CUBESAT 2 28 Apr 10:15:22 10:19:24 47° 285° (WNW) 10:23:22 437.432
ZACube-1 28 Apr 10:17:56 10:22:14 38° 97° (E) 10:26:29 437.345
CANX-2 28 Apr 10:19:43 10:23:05 22° 289° (WNW) 10:26:19 2200.000
NANOSAT C BR1 28 Apr 10:27:20 10:30:45 25° 72° (ENE) 10:34:17 145.865
CUTE 1.7 + AOD 2 28 Apr 10:28:35 10:31:43 20° 289° (WNW) 10:34:44 437.475
POPSAT HIP 1 28 Apr 10:31:45 10:35:20 29° 72° (ENE) 10:39:01 437.405
VELOX 1 28 Apr 10:33:44 10:35:46 13° 92° (E) 10:38:05 145.980
BUGSAT 1 28 Apr 10:40:38 10:43:47 23° 72° (ENE) 10:47:04 437.445
YUBILEINY 28 Apr 10:43:15 10:52:05 81° 94° (E) 11:00:55 435.215
GOMX 1 28 Apr 10:45:21 10:48:13 14° 292° (WNW) 10:50:49 467.674
AIST 1 28 Apr 10:46:03 10:48:34 16° 74° (ENE) 10:51:16
SO-50 28 Apr 10:46:11 10:50:47 87° 117° (ESE) 10:55:34 436.795
ISS 28 Apr 10:47:10 10:50:19 51° 318° (NW) 10:53:31 145.825
DX 1 28 Apr 10:48:56 10:53:09 48° 100° (E) 10:57:24 434.975-435.025
AISAT 28 Apr 10:51:36 10:55:08 23° 95° (E) 10:58:46 437.250
DUCHIFAT 1 28 Apr 10:59:31 11:03:38 63° 77° (ENE) 11:07:49 145.980
TIGRISAT 28 Apr 11:01:19 11:05:45 55° 261° (W) 11:10:18 435.000
POLYITAN 1 28 Apr 11:02:16 11:06:27 72° 77° (ENE) 11:10:42 437.675
AIST 2 28 Apr 11:03:40 11:05:35 13° 47° (NE) 11:07:41 435.215
CUBEBUG 2 28 Apr 11:06:26 11:10:51 37° 287° (WNW) 11:15:09 437.445
DELFI C3 28 Apr 11:06:35 11:10:16 34° 286° (WNW) 11:13:53 145.870
UNISAT 6 28 Apr 11:07:09 11:11:29 46° 262° (W) 11:15:57 437.425
DOVE 4 28 Apr 11:07:53 11:10:04 12° 293° (WNW) 11:11:57 437.250
BEESAT 3 28 Apr 11:15:23 11:19:28 67° 60° (ENE) 11:23:27 437.485
QB50P1 28 Apr 11:19:00 11:23:11 71° 258° (WSW) 11:27:25 145.935-145.965
BEESAT 2 28 Apr 11:20:46 11:24:50 62° 60° (ENE) 11:28:50 435.950
HUMSAT D 28 Apr 11:24:16 11:28:36 74° 284° (WNW) 11:32:52 437.325/437.525
UWE-3 28 Apr 11:26:26 11:30:26 27° 288° (WNW) 11:34:18 435.000/436.395/437.385
FUNcube-1 28 Apr 11:27:37 11:31:45 33° 287° (WNW) 11:35:47 145.935
UKube-1 28 Apr 11:27:38 11:31:55 60° 285° (WNW) 11:36:11 .
Cosmos 2504 28 Apr 11:28:31 11:30:31 11° 80° (E) 11:33:24 435.465 / 435.565
CINEMA 3 28 Apr 11:29:31 11:31:56 13° 293° (WNW) 11:34:03 145.822/145.860
50 SAT 28 Apr 11:39:17 11:43:19 81° 284° (WNW) 11:47:18 437.505
ESTCUBE 1 28 Apr 11:40:38 11:44:55 44° 99° (E) 11:49:13 437.505/2401.250
Cosmos 2491 28 Apr 11:43:12 11:49:36 22° 276° (W) 11:55:33 435.465 / 435.565
QB50P2 28 Apr 11:46:46 11:50:32 31° 263° (W) 11:54:17 145.880/145.840
Oscar 11 28 Apr 11:49:54 11:50:11 10° 293° (WNW) 11:50:11 145.826/435.025
ANTELSAT 28 Apr 11:51:18 11:54:04 15° 269° (W) 11:56:39 437.575/2403.000
RS-15 28 Apr 11:54:23 11:59:23 15° 102° (ESE) 12:05:23 29.354- 29.394
ZACube-1 28 Apr 11:55:16 11:58:18 17° 291° (WNW) 12:01:07 437.345
NANOSAT C BR1 28 Apr 12:03:22 12:06:35 21° 266° (W) 12:09:42 145.865
CUBEBUG 1 28 Apr 12:04:29 12:08:52 77° 103° (ESE) 12:13:15 437.445
POPSAT HIP 1 28 Apr 12:08:18 12:11:17 18° 267° (W) 12:14:08 437.405
VELOX 1 28 Apr 12:08:22 12:12:36 43° 286° (WNW) 12:16:48 145.980
BUGSAT 1 28 Apr 12:16:13 12:19:16 20° 266° (W) 12:22:11 437.445
AIST 1 28 Apr 12:22:32 12:26:21 31° 268° (W) 12:30:07
DX 1 28 Apr 12:27:04 12:29:03 13° 292° (WNW) 12:30:47 434.975-435.025
AISAT 28 Apr 12:27:57 12:31:41 26° 289° (WNW) 12:35:20 437.250
SO-50 28 Apr 12:30:36 12:32:06 11° 317° (NW) 12:33:22 436.795
TISAT 1 28 Apr 12:30:54 12:34:31 27° 96° (E) 12:38:12 437.305
AIST 2 28 Apr 12:40:27 12:44:35 54° 245° (WSW) 12:48:36 435.215
YUBILEINY 28 Apr 12:44:18 12:50:05 18° 294° (WNW) 12:55:19 435.215
Oscar 19 28 Apr 12:59:01 13:03:45 39° 72° (ENE) 13:08:35 437.125/150
SPROUT 28 Apr 13:12:57 13:17:15 66° 284° (WNW) 13:21:33 437.525
Cosmos 2504 28 Apr 13:14:01 13:22:51 76° 94° (E) 13:31:38 435.465 / 435.565
ESTCUBE 1 28 Apr 13:19:02 13:21:28 14° 292° (WNW) 13:23:41 437.505/2401.250
ITAMSAT 1 28 Apr 13:41:07 13:45:31 30° 71° (ENE) 13:50:01 435.822/435.867
VERMONT LUNAR 28 Apr 13:44:18 13:46:33 17° 143° (SE) 13:48:53 437.305
RS-15 28 Apr 13:59:33 14:10:27 85° 117° (ESE) 14:21:33 29.354- 29.394
ITUPSAT 1 28 Apr 14:05:15 14:09:49 46° 99° (E) 14:14:23 437.325
TISAT 1 28 Apr 14:06:59 14:10:09 20° 289° (WNW) 14:13:12 437.305
Gurwin Techsat 1B 28 Apr 14:28:36 14:33:54 78° 76° (ENE) 14:39:14 435.225
JAS-2 28 Apr 14:30:17 14:34:59 18° 64° (ENE) 14:39:58 435.910
BEESAT 28 Apr 14:33:52 14:38:38 82° 285° (WNW) 14:43:23 436.000
SWISSCUBE 28 Apr 14:36:58 14:41:42 69° 284° (WNW) 14:46:25 437.505
Oscar 19 28 Apr 14:39:30 14:43:18 20° 267° (W) 14:46:56 437.125/150
PHONESAT 2.4 28 Apr 14:44:40 14:47:08 18° 143° (SE) 14:49:42 2401.200-2431.200
AO-7 28 Apr 14:51:46 14:58:39 32° 63° (ENE) 15:05:43 29.400- 29.500
HORYU 2 28 Apr 14:54:15 14:57:48 24° 71° (ENE) 15:01:27 437.375
GONETS M04 28 Apr 15:09:01 15:15:26 25° 85° (E) 15:22:15
Cosmos 2504 28 Apr 15:10:48 15:17:13 20° 292° (WNW) 15:23:06 435.465 / 435.565
KKS-1 28 Apr 15:13:46 15:18:04 45° 99° (E) 15:22:23 437.445
VERMONT LUNAR 28 Apr 15:20:24 15:23:45 74° 336° (NNW) 15:27:08 437.305
ITAMSAT 1 28 Apr 15:20:38 15:25:01 27° 264° (W) 15:29:17 435.822/435.867
ITUPSAT 1 28 Apr 15:44:31 15:47:23 15° 292° (WNW) 15:50:02 437.325
PCSat 28 Apr 15:44:47 15:46:44 12° 46° (NE) 15:48:59 145.827
STARS 28 Apr 16:00:19 16:04:48 83° 283° (WNW) 16:09:14 437.465
JAS-2 28 Apr 16:11:26 16:19:20 84° 258° (WSW) 16:27:00 435.910
RS-15 28 Apr 16:15:33 16:24:25 26° 321° (NW) 16:33:08 29.354- 29.394
PHONESAT 2.4 28 Apr 16:21:33 16:25:06 76° 335° (NNW) 16:28:42 2401.200-2431.200
DANDE 28 Apr 16:29:50 16:32:24 21° 87° (E) 16:35:37 436.750
HORYU 2 28 Apr 16:30:36 16:34:21 25° 264° (W) 16:38:03 437.375
AO-7 28 Apr 16:43:08 16:51:09 52° 259° (WSW) 16:59:09 29.400- 29.500
KKS-1 28 Apr 16:51:54 16:54:22 14° 292° (WNW) 16:56:38 437.445
CUTE-I 28 Apr 16:57:49 16:59:42 12° 65° (ENE) 17:01:55 437.470
VERMONT LUNAR 28 Apr 16:58:37 17:01:32 26° 352° (N) 17:04:27 437.305
GONETS M04 28 Apr 17:03:06 17:11:44 60° 281° (W) 17:20:25
Cubesat XI-IV 28 Apr 17:07:16 17:10:16 16° 67° (ENE) 17:13:31 437.490
CUSAT 1 28 Apr 17:09:49 17:13:23 68° 280° (W) 17:18:11 437.405
ISS 28 Apr 17:17:50 17:20:35 25° 35° (NE) 17:23:21 145.825
PCSat 28 Apr 17:25:32 17:30:59 88° 252° (WSW) 17:36:24 145.827
Cosmos 2499 28 Apr 17:26:41 17:34:21 36° 88° (E) 17:42:04 435.465 / 435.565
MOZHAYETS 4 28 Apr 17:40:58 17:45:31 64° 284° (WNW) 17:50:01
PHONESAT 2.4 28 Apr 18:00:31 18:03:41 28° 352° (N) 18:06:50 2401.200-2431.200
JAS-2 28 Apr 18:01:36 18:05:19 13° 273° (W) 18:08:20 435.910
DANDE 28 Apr 18:13:23 18:15:45 16° 295° (WNW) 18:18:21 436.750
